Redding, CA

3:33 PM PST on November 16, 2019 (GMT -0800)
Redding Municipal

Weather History for KRDD - September, 2019

Change the Weather History Date:

Monday, September 16, 2019

  Actual Average Record
Temperature  
Mean Temperature 69 °F -  
Max Temperature 76 °F 91 °F 105 °F (1971)
Min Temperature 61 °F 58 °F 44 °F (1980)
Degree Days  
Heating Degree Days 0    
Cooling Degree Days 4    
Growing Degree Days 18 (Base 50)    
Moisture  
Dew Point 50 °F    
Average Humidity 59    
Maximum Humidity 90    
Minimum Humidity 27    
Precipitation  
Precipitation 0.12 in 0.02 in 1.02 in (1977)
Month to date precipitation 0.12 0.30  
Year to date precipitation 32.39 21.43  
Sea Level Pressure  
Sea Level Pressure 29.82 in    
Wind  
Wind Speed 9 mph (SW)    
Max Wind Speed 21 mph    
Max Gust Speed 29 mph    
Visibility 10 miles    
Events Rain , Thunderstorm    
T = Trace of Precipitation, MM = Missing Value Source: NWS Daily Summary

Daily Weather History Graph

Daily Weather History Graph

Search for Another Location

Airport or City:

Astronomy

Sep. 16, 2019 Rise Set
Actual Time 6:50 AM PDT 7:16 PM PDT
Civil Twilight 6:23 AM PDT 7:43 PM PDT
Nautical Twilight 5:51 AM PDT 8:16 PM PDT
Astronomical Twilight 5:18 AM PDT 8:48 PM PDT
Moon 8:53 PM PDT 9:03 AM PDT
Length of Visible Light 13h 20m
Length of Day
12h 25m
Waning Gibbous, 94% of the Moon is Illuminated
Sep 16
Waning Gibbous
Sep 21
Last Quarter
Sep 28
New
Oct 5
First Quarter
Oct 13
Full

Hourly Weather History & Observations

Time (PDT) Temp. Dew Point Humidity Pressure Visibility Wind Dir Wind Speed Gust Speed Precip Events Conditions
12:53 AM 72.0 °F 53.1 °F 51% 29.70 in 10.0 mi SSW 18.4 mph 27.6 mph N/A   Scattered Clouds
1:53 AM 71.1 °F 55.0 °F 57% 29.70 in 10.0 mi South 13.8 mph 18.4 mph N/A   Mostly Cloudy
2:10 AM 70.0 °F 55.0 °F 59% 29.74 in 10.0 mi WSW 11.5 mph - N/A Thunderstorm Overcast
2:25 AM 69.1 °F 57.0 °F 65% 29.75 in 10.0 mi WSW 10.4 mph 18.4 mph 0.00 in Rain Light Rain
2:53 AM 66.0 °F 60.1 °F 81% 29.73 in 4.0 mi SSW 10.4 mph - 0.08 in Rain Light Rain
3:53 AM 64.9 °F 61.0 °F 87% 29.75 in 10.0 mi SSW 8.1 mph - 0.02 in Rain Light Rain
4:53 AM 64.0 °F 61.0 °F 90% 29.75 in 10.0 mi South 4.6 mph - 0.02 in   Mostly Cloudy
5:53 AM 63.0 °F 59.0 °F 87% 29.75 in 10.0 mi Calm Calm - N/A   Overcast
6:53 AM 62.1 °F 59.0 °F 90% 29.76 in 10.0 mi West 3.5 mph - N/A   Partly Cloudy
7:53 AM 63.0 °F 59.0 °F 87% 29.79 in 10.0 mi South 3.5 mph - N/A   Overcast
8:53 AM 63.0 °F 55.0 °F 75% 29.81 in 10.0 mi SE 3.5 mph - N/A   Scattered Clouds
9:53 AM 68.0 °F 51.1 °F 55% 29.81 in 10.0 mi West 6.9 mph - N/A   Overcast
10:53 AM 71.1 °F 46.9 °F 42% 29.83 in 10.0 mi Variable 5.8 mph - N/A   Partly Cloudy
11:53 AM 71.1 °F 45.0 °F 39% 29.83 in 10.0 mi Variable 5.8 mph - N/A   Partly Cloudy
12:53 PM 72.0 °F 41.0 °F 33% 29.83 in 10.0 mi Variable 4.6 mph - N/A   Mostly Cloudy
1:53 PM 73.9 °F 46.0 °F 37% 29.84 in 10.0 mi NNE 10.4 mph - N/A   Mostly Cloudy
2:53 PM 75.0 °F 39.0 °F 27% 29.84 in 10.0 mi SSW 5.8 mph - N/A   Mostly Cloudy
3:53 PM 75.0 °F 39.0 °F 27% 29.85 in 10.0 mi Calm Calm - N/A   Mostly Cloudy
4:53 PM 75.0 °F 39.9 °F 28% 29.86 in 10.0 mi WNW 13.8 mph 21.9 mph N/A   Unknown
5:53 PM 73.9 °F 42.1 °F 32% 29.88 in 10.0 mi West 10.4 mph - N/A   Partly Cloudy
6:53 PM 70.0 °F 42.1 °F 36% 29.91 in 10.0 mi WNW 10.4 mph 20.7 mph N/A   Partly Cloudy
7:53 PM 66.9 °F 43.0 °F 42% 29.92 in 10.0 mi WNW 5.8 mph - N/A   Clear
8:53 PM 66.0 °F 43.0 °F 43% 29.94 in 10.0 mi West 4.6 mph - N/A   Partly Cloudy
9:53 PM 64.9 °F 43.0 °F 45% 29.96 in 10.0 mi North - - N/A   Clear
10:53 PM 62.1 °F 46.0 °F 56% 29.96 in 10.0 mi North 3.5 mph - N/A   Clear
11:53 PM 59.0 °F 46.9 °F 64% 29.98 in 10.0 mi Calm Calm - N/A   Clear